1378080025861,1.71889
1378080085861,1.71815
1378080145861,1.68507
1378080205861,1.78280
1378080265861,1.71101
1378080325861,1.72439
1378080385861,1.69232
1378080445861,1.69750
1378080505861,1.68651
1378080565861,1.69160
1378080625861,1.70709
1378080685861,1.72303
1378080745861,1.85172
1378080805861,1.72495
1378080865861,1.69006
1378080925861,1.71109
1378080985861,1.70658
1378081045861,1.70663
1378081105861,1.70438
1378081165861,1.68578
1378081225861,1.72125
1378081285861,1.71119
1378081345861,1.73459
1378081405861,1.70205
1378081465861,1.70693
1378081525861,1.74650
1378081585861,1.70800
1378081645861,1.70868
1378081705861,1.68438
1378081765861,1.68100
1378081825861,1.69131
1378081885861,1.69790
1378081945861,1.68543
1378082005861,1.79508
1378082065861,1.69049
1378082125861,1.66880
1378082185861,1.71402
1378082245861,1.69523
1378082305861,1.69930
1378082365861,1.70521
1378082425861,1.67512
1378082485861,1.69627
1378082545861,1.67812
1378082605861,1.69749
1378082665861,1.69413
1378082725861,1.68059
1378082785861,1.68165
1378082845861,1.69843
1378082905861,1.61614
1378082965861,1.69792
1378083025861,1.70714
1378083085861,1.70037
1378083145861,1.67593
1378083205861,1.68733
1378083265861,1.70295
1378083325861,1.55080
1378083385861,1.71813
1378083445861,1.68361
1378083505861,1.72744
1378083565861,1.68791
1378083625873,1.68291
1378083685873,1.69014
1378083745873,1.74108
1378083805873,1.69800
1378083865873,1.69446
1378083925873,1.72005
1378083985873,1.72073
1378084045873,1.71005
1378084105873,1.69364
1378084165873,1.68633
1378084225873,1.72092
1378084285873,1.62685
1378084825873,1.69961
1378084885873,1.66086
1378084945873,1.68752
1378085005873,1.71610
1378085065873,1.70910
1378085125873,1.70864
1378085185873,1.69448
1378085245873,1.69581
1378085305873,1.70048
1378085365873,1.66900
1378085425873,1.71122
1378085485873,1.71371
1378085545873,1.70771
1378085605873,1.70976
1378085665873,1.73068
1378085725873,1.66784
1378085785873,1.68907
1378085845873,1.68599
1378085905873,1.70524
1378085965873,1.70193
1378086025873,1.69322
1378086085873,1.71497
1378086145873,1.72353
1378086205873,1.70762
1378086265873,1.70199
1378086325873,1.71218
1378086385873,1.71351
1378086445873,1.69189
1378086505873,1.67964
1378086565873,1.70906
1378086625873,1.72368
1378086685873,1.69914
1378086745873,1.71944
1378086805873,1.69901
1378086865873,1.71937
1378086925873,1.71274
1378086985873,1.71257
1378087045873,1.75084
1378087105873,1.72288
1378087165873,1.67960
1378087225885,1.71267
1378087285885,1.73042
1378087345885,1.71346
1378087405885,1.72895
1378087465885,1.71324
1378087525885,1.74048
1378087585885,1.69429
1378087645885,1.71998
1378087705885,1.70349
1378087765885,1.69374
1378087825885,1.72306
1378087885885,1.69746
1378087945885,1.69990
1378088005885,1.68224
1378088065885,1.69524
1378088125885,1.70720
1378088185885,1.69363
1378088245885,1.70223
1378088305885,1.71451
1378088365885,1.70768
1378088425885,1.69626
1378088485885,1.70827
1378088545885,1.73077
1378088605885,1.72088
1378088665885,1.70659
1378088725885,1.71659
1378088785885,1.73715
1378088845885,1.71411
1378088905885,1.72286
1378088965885,1.72858
1378089025885,1.70258
1378089085885,1.71877
1378089145885,1.71997
1378089205885,1.71222
1378089265885,1.73091
1378089325885,1.70616
1378089385885,1.70417
1378089445885,1.69703
1378089505885,1.69434
1378089565885,1.69706
1378089625885,1.67899
1378089685885,1.72124
1378089745885,1.69071
1378089805885,1.72250
1378089865885,1.72355
1378089925885,1.70954
1378089985885,1.71708
1378090045885,1.72818
1378090105885,1.71050
1378090165885,1.72047
1378090225885,1.67830
1378090285885,1.71207
1378090345885,1.71323
1378090405885,1.70093
1378090465885,1.70799
1378090525885,1.73446
1378090585885,1.69632
1378090645885,1.70513
1378090705885,1.69748
1378090765885,1.70034
1378090825896,1.73711
1378090885896,1.69007
1378090945896,1.69599
1378091005896,1.71870
1378091065896,1.69279
1378091125896,1.72074
1378091185896,1.70752
1378091245896,1.69886
1378091305896,1.69446
1378091365896,1.71866
1378091425896,1.70935
1378091485896,1.69084
1378091545896,1.68978
1378091605896,1.70898
1378091665896,1.72266
1378091725896,1.70851
1378091785896,1.72660
1378091845896,1.69931
1378091905896,1.68979
1378091965896,1.71049
1378092025896,1.71289
1378092085896,1.70262
1378092145896,1.69454
1378092205896,1.68141
1378092265896,1.69806
1378092325896,1.71524
1378092385896,1.71035
1378092445896,1.71985
1378092505896,1.70576
1378092565896,1.70691
1378092625896,1.69832
1378092685896,1.68631
1378092745896,1.70374
1378092805896,1.69313
1378092865896,1.72760
1378092925896,1.70699
1378092985896,1.69450
1378093045896,1.83842
1378093105896,1.67925
1378093165896,1.70765
1378093225896,1.69996
1378093285896,1.70552
1378093345896,1.69424
1378093405896,1.69689
1378093465896,1.70447
1378093525896,1.68068
1378093585896,1.71084
1378093645896,1.70016
1378093705896,1.71747
1378093765896,1.69947
1378093825896,1.71115
1378093885896,1.72229
1378093945896,1.69365
1378094005896,1.71405
1378094065896,1.71057
1378094125896,1.72024
1378094185896,1.71589
1378094245896,1.69361
1378094305896,1.79123
1378094365896,1.66534
1378094425908,1.70081
1378094485908,1.68702
1378094545908,1.70774
1378094605908,1.73323
1378094665908,1.70853
1378094725908,1.68360
1378094785908,1.71590
1378094845908,1.70681
1378094905908,1.70641
1378094965908,1.71299
1378095025908,1.71328
1378095085908,1.69580
1378095145908,1.68676
1378095205908,1.71077
1378095265908,1.71513
1378095325908,1.69577
1378095385908,1.69445
1378095445908,1.69590
1378095505908,1.70672
1378095565908,1.64800
1378095625908,1.71472
1378095685908,1.69324
1378095745908,1.69959
1378095805908,1.69304
1378095865908,1.70314
1378095925908,1.68812
1378095985908,1.81536
1378096045908,1.71096
1378096105908,1.68995
1378096165908,1.71552
1378096225908,1.71910
1378096285908,1.71976
1378096345908,1.70966
1378096405908,1.69677
1378096465908,1.68839
1378096525908,1.72114
1378096585908,1.70234
1378096645908,1.70544
1378096705908,1.69254
1378096765908,1.72445
1378096825908,1.71718
1378096885908,1.72632
1378096945908,1.68227
1378097005908,1.68875
1378097065908,1.68897
1378097125908,1.68629
1378097185908,1.70061
1378097245908,1.70020
1378097305908,1.72253
1378097365908,1.71502
1378097425908,1.69832
1378097485908,1.71168
1378097545908,1.68947
1378097605908,1.52823
1378097665908,1.68233
1378097725908,1.69936
1378097785908,1.71774
1378097845908,1.68552
1378097905908,1.69272
1378097965908,1.70774
1378098025925,1.70423
1378098085925,1.71509
1378098145925,1.69189
1378098205925,1.72532
1378098265925,1.73104
1378098325925,1.68560
1378098385925,1.69052
1378098445925,1.70549
1378098505925,1.67504
1378098565925,1.71251
1378098625925,1.69449
1378098685925,1.71825
1378098745925,1.70603
1378098805925,1.67618
1378098865925,1.69652
1378098925925,1.70235
1378098985925,1.72084
1378099045925,1.67210
1378099105925,1.73462
1378099165925,1.71691
1378099225925,1.68703
1378099285925,1.69987
1378099345925,1.72749
1378099405925,1.71770
1378099465925,1.71599
1378099525925,1.72068
1378099585925,1.69941
1378099645925,1.70997
1378099705925,1.69343
1378099765925,1.71417
1378099825925,1.71961
1378099885925,1.72527
1378099945925,1.70815
1378100005925,1.70887
1378100065925,1.70016
1378100125925,1.70227
1378100185925,1.68780
1378100245925,1.72529
1378100305925,1.73121
1378100365925,1.72519
1378100425925,1.74143
1378100485925,1.73259
1378100545925,1.71181
1378100605925,1.71644
1378100665925,1.70110
1378100725925,1.70599
1378100785925,1.70714
1378100845925,1.71941
1378100905925,1.71043
1378100965925,1.70535
1378101025925,1.72271
1378101085925,1.69683
1378101145925,1.72281
1378101205925,1.70429
1378101265925,1.69518
1378101325925,1.69908
1378101385925,1.71190
1378101445925,1.73822
1378101505925,1.71269
1378101565925,1.70485
1378101625937,1.72079
1378101685937,1.71420
1378101745937,1.71928
1378101805937,1.70610
1378101865937,1.68924
1378101925937,1.70349
1378101985937,1.71805
1378102045937,1.71620
1378102105937,1.71061
1378102165937,1.72304
1378102225937,1.72400
1378102285937,1.77809
1378102345937,1.72899
1378102405937,1.73161
1378102465937,1.73247
1378102525937,1.72343
1378102585937,1.72458
1378102645937,1.71318
1378102705937,1.72927
1378102765937,1.70383
1378102825937,1.71595
1378102885937,1.71482
1378102945937,1.72293
1378103005937,1.71335
1378103065937,1.73546
1378103125937,1.69269
1378103185937,1.70258
1378103245937,1.72646
1378103305937,1.71537
1378103365937,1.72938
1378103425937,1.73743
1378103485937,1.71727
1378103545937,1.71561
1378103605937,1.72265
1378103665937,1.71055
1378103725937,1.73514
1378103785937,1.74080
1378103845937,1.73363
1378103905937,1.74147
1378103965937,1.72549
1378104025937,1.69755
1378104085937,1.71484
1378104145937,1.72908
1378104205937,1.72774
1378104265937,1.73041
1378104325937,1.72097
1378104385937,1.75243
1378104445937,1.73656
1378104505937,1.73075
1378104565937,1.71695
1378104625937,1.73978
1378104685937,1.71757
1378104745937,1.72207
1378106305948,1.68359
1378106365948,1.75265
1378106425948,1.72192
1378106485948,1.72528
1378106545948,1.74490
1378106605948,1.78344
1378106665948,1.73745
1378106725948,1.72985
1378106785948,1.75502
1378106845948,1.73695
1378106905948,1.71888
1378106965948,1.75790
1378107025948,1.76379
1378107085948,1.72786
1378107145948,1.77116
1378107205948,1.75171
1378107265948,1.74247
1378107325948,1.72200
1378107385948,1.74944
1378107445948,1.74793
1378107505948,1.73683
1378107565948,1.73711
1378107625948,1.75682
1378107685948,1.71784
1378107745948,1.73812
1378107805948,1.74003
1378107865948,1.74352
1378107925948,1.74140
1378107985948,1.75991
1378108045948,1.74324
1378108105948,1.74680
1378108165948,1.74840
1378108225948,1.77014
1378108285948,1.73174
1378108345948,1.74768
1378108405948,1.75301
1378108465948,1.75031
1378108525948,1.76507
1378108585948,1.73809
1378108645948,1.74846
1378108705948,1.73207
1378108765948,1.74031
1378108825960,1.76048
1378108885960,1.75655
1378108945960,1.74089
1378109005960,1.73417
1378109065960,1.73168
1378109125960,1.76006
1378109185960,1.72933
1378109245960,1.75717
1378109305960,1.76531
1378109365960,1.74759
1378109425960,1.71943
1378109485960,1.73236
1378109545960,1.76548
1378109605960,1.72642
1378109665960,1.74615
1378109725960,1.74190
1378109785960,1.75383
1378109845960,1.74962
1378109905960,1.75002
1378109965960,1.70998
1378110025960,1.75693
1378110085960,1.76453
1378110145960,1.77545
1378110205960,1.75310
1378110265960,1.77549
1378110325960,1.75681
1378110385960,1.72375
1378110445960,1.77812
1378110505960,1.77010
1378110565960,1.74662
1378110625960,1.75989
1378110685960,1.75680
1378110745960,1.77610
1378110805960,1.75330
1378110865960,1.75890
1378110925960,1.74184
1378110985960,1.77121
1378111045960,1.77689
1378111105960,1.71792
1378111165960,1.74982
1378111225960,1.83243
1378111285960,1.74547
1378111345960,1.76775
1378111405960,1.78081
1378111465960,1.84353
1378111525960,1.86489
1378111585960,1.77852
1378111645960,1.77780
1378111705960,1.76305
1378111765960,1.78142
1378111825960,1.75858
1378111885960,1.80825
1378111945960,1.75245
1378112005960,1.75956
1378112065960,1.76493
1378112125960,1.75951
1378112185960,1.77227
1378112245960,1.77648
1378112305960,1.77985
1378112365960,1.76452
1378112425972,1.77028
1378112485972,1.75000
1378112545972,1.77187
1378112605972,1.75700
1378112665972,1.79911
1378112725972,1.76820
1378112785972,1.79668
1378112845972,1.73574
1378112905972,1.76698
1378112965972,1.76173
1378113025972,1.76613
1378113085972,1.79531
1378113145972,1.79509
1378113205972,1.77114
1378113265972,1.79757
1378113325972,1.77030
1378113385972,1.80201
1378113445972,1.74785
1378113505972,1.77902
1378113565972,1.77653
1378113625972,1.77288
1378113685972,1.78929
1378113745972,1.75916
1378113805972,1.75573
1378113865972,1.77525
1378113925972,1.73916
1378113985972,1.78565
1378114045972,1.78398
1378114105972,1.78665
1378114165972,1.76334
1378114225972,1.77959
1378114285972,1.77882
1378114345972,1.76310
1378114405972,1.78261
1378114465972,1.79337
1378114525972,1.74848
1378114585972,1.76407
1378114645972,1.76741
1378114705972,1.76499
1378114765972,1.84391
1378114825972,1.77015
1378114885972,1.79083
1378114945972,1.74583
1378115005972,1.77424
1378115065972,1.74545
1378115125972,1.74750
1378115185972,1.77653
1378115245972,1.78284
1378115305972,1.76171
1378115365972,1.76301
1378115425972,1.73045
1378115485972,1.77267
1378115545972,1.77226
1378115605972,1.74963
1378115665972,1.71388
1378115725972,1.74258
1378115785972,1.77218
1378115845972,1.75510
1378115905972,1.73453
1378115965972,1.77808
1378116025984,1.74084
1378116085984,1.74872
1378116145984,1.74459
1378116205984,1.77373
1378116265984,1.75992
1378116325984,1.74519
1378116385984,1.76194
1378116445984,1.74412
1378116505984,1.73098
1378116565984,1.76444
1378116625984,1.73408
1378116685984,1.77634
1378116745984,1.72144
1378116805984,1.73557
1378116865984,1.78095
1378116925984,1.75042
1378116985984,1.74546
1378117045984,1.74916
1378117105984,1.74847
1378117165984,1.73313
1378117225984,1.81511
1378117285984,1.76249
1378117345984,1.75963
1378117405984,1.70628
1378117465984,1.73824
1378117525984,1.73547
1378117585984,1.74315
1378117645984,1.76841
1378117705984,1.73278
1378117765984,1.76731
1378117825984,1.75000
1378117885984,1.76554
1378117945984,1.71541
1378118005984,1.73310
1378118065984,1.72489
1378118125984,1.73918
1378118185984,1.74699
1378118245984,1.74313
1378118305984,1.72347
1378118365984,1.71492
1378118425984,1.73841
1378118485984,1.73228
1378118545984,1.73456
1378118605984,1.73964
1378118665984,1.72325
1378118725984,1.71425
1378118785984,1.71806
1378118845984,1.76698
1378118905984,1.72816
1378118965984,1.70335
1378119025984,1.72925
1378119085984,1.72199
1378119145984,1.74663
1378119205984,1.72364
1378119265984,1.73056
1378119325984,1.71485
1378119385984,1.71718
1378119445984,1.73384
1378119505984,1.72092
1378119565984,1.73180
1378119625996,1.75114
1378119685996,1.70879
1378119745996,1.71142
1378119805996,1.73316
1378119865996,1.76087
1378119925996,1.74201
1378119985996,1.74912
1378120045996,1.72943
1378120105996,1.73261
1378120165996,1.73106
1378120225996,1.71552
1378120285996,1.71984
1378120345996,1.73516
1378120405996,1.73731
1378120465996,1.74305
1378120525996,1.73409
1378120585996,1.72203
1378120645996,1.74853
1378120705996,1.72779
1378120765996,1.72579
1378120825996,1.71664
1378120885996,1.72041
1378120945996,1.72041
1378121005996,1.73507
1378121065996,1.74045
1378121125996,1.73262
1378121185996,1.75512
1378121245996,1.74204
1378121305996,1.73733
1378121365996,1.74399
1378121425996,1.72278
1378121485996,1.70836
1378121545996,1.75091
1378121605996,1.73718
1378121665996,1.74051
1378121725996,1.74107
1378121785996,1.75030
1378121845996,1.75465
1378121905996,1.74143
1378121965996,1.74337
1378122025996,1.74881
1378122085996,1.74484
1378122145996,1.74660
1378122205996,1.74098
1378122265996,1.75173
1378122325996,1.73034
1378122385996,1.76645
1378122445996,1.76526
1378122505996,1.72541
1378122565996,1.72909
1378122625996,1.75242
1378122685996,1.74282
1378122745996,1.77963
1378122805996,1.76835
1378122865996,1.72947
1378122925996,1.74737
1378122985996,1.76120
1378123045996,1.74632
1378123105996,1.75370
1378123165996,1.76555
1378123226008,1.75904
1378123286008,1.75839
1378123346008,1.75548
1378123406008,1.87602
1378123466008,1.74533
1378123526008,1.78490
1378123586008,1.76874
1378123646008,1.74342
1378123706008,1.75576
1378123766008,1.76192
1378123826008,1.76983
1378123886008,1.75300
1378123946008,1.74115
1378124006008,1.75019
1378124066008,1.77219
1378124126008,1.76917
1378124186008,1.74787
1378124246008,1.73871
1378124306008,1.72603
1378124366008,1.74888
1378124426008,1.75679
1378124486008,1.78349
1378124546008,1.75992
1378124606008,1.75861
1378124666008,1.75355
1378124726008,1.75347
1378124786008,1.75207
1378124846008,1.74675
1378124906008,1.77261
1378124966008,1.78000
1378125026008,1.78867
1378125086008,1.76506
1378125146008,1.76659
1378125206008,1.76607
1378125266008,1.78408
1378125326008,1.74681
1378125386008,1.76993
1378125446008,1.75303
1378125506008,1.79770
1378125566008,1.77988
1378125626008,1.76626
1378125686008,1.76001
1378125746008,1.77489
1378125806008,1.78465
1378125866008,1.78412
1378125926008,1.78509
1378125986008,1.84493
1378126046008,1.78654
1378126106008,1.79774
1378126166008,1.78979
1378126226008,1.77885
1378126286008,1.78958
1378126346008,1.79407
1378126406008,1.76090
1378126466008,1.77580
1378126526008,1.77618
1378126586008,1.76083
1378126646008,1.76089
1378126706008,1.76681
1378126766008,1.76952
1378126826021,1.80230
1378126886021,1.76780
1378126946021,1.77413
1378127006021,1.77978
1378127066021,1.77937
1378127126021,1.76533
1378127186021,1.78167
1378127246021,1.79668
1378127306021,1.79416
1378127366021,1.80377
1378127426021,1.78040
1378127486021,1.77055
1378127546021,1.77865
1378127606021,1.78098
1378127666021,1.77966
1378127726021,1.77969
1378127786021,1.76433
1378127846021,1.92289
1378127906021,1.79386
1378127966021,1.76721
1378128026021,1.79121
1378128086021,1.78092
1378128146021,1.78168
1378128206021,1.77639
1378128266021,1.78279
1378128326021,1.78589
1378128386021,1.77769
1378128446021,1.78264
1378128506021,1.76964
1378128566021,1.76887
1378128626021,1.78529
1378128686021,1.80984
1378128746021,1.79226
1378128806021,1.78410
1378128866021,1.81089
1378128926021,1.77830
1378128986021,1.77050
1378129046021,1.80820
1378129106021,1.77745
1378129166021,1.78411
1378129226021,1.79423
1378129286021,1.79929
1378129346021,1.79315
1378129406021,1.78919
1378129466021,1.77684
1378129526021,1.79726
1378129586021,1.80545
1378129646021,1.79843
1378129706021,1.78737
1378129766021,1.78775
1378129826021,1.78549
1378129886021,1.77365
1378129946021,1.80588
1378130006021,1.81074
1378130066021,1.80850
1378130126021,1.82965
1378130186021,1.78194
1378130246021,1.81606
1378130306021,1.79608
1378130366021,1.80762
1378130426033,1.81965
1378130486033,1.81385
1378130546033,1.82132
1378130606033,1.80034
1378130666033,1.81910
1378130726033,1.81440
1378130786033,1.81863
1378130846033,1.79679
1378130906033,1.79374
1378130966033,1.81472
1378131026033,1.83140
1378131086033,1.81919
1378131146033,1.79970
1378131206033,1.78952
1378131266033,1.78354
1378131326033,1.80025
1378131386033,1.81903
1378131446033,1.81302
1378131506033,1.80490
1378131566033,1.82658
1378131626033,1.80871
1378131686033,1.80888
1378131746033,1.80397
1378131806033,1.81330
1378131866033,1.81845
1378131926033,1.81963
1378131986033,1.80540
1378132046033,1.80769
1378132106033,1.83262
1378132166033,1.80852
1378132226033,1.81879
1378132286033,1.80781
1378132346033,1.80102
1378132406033,1.77749
1378132466033,1.81780
1378132526033,1.79271
1378132586033,1.82977
1378132646033,1.81935
1378132706033,1.80556
1378132766033,1.81493
1378132826033,1.83117
1378132886033,1.82849
1378132946033,1.84943
1378133006033,1.83747
1378133066033,1.83262
1378133126033,1.82450
1378133186033,1.84886
1378133246033,1.83798
1378133306033,1.81749
1378133366033,1.80927
1378133426033,1.82675
1378133486033,1.82986
1378133546033,1.82599
1378133606033,1.83612
1378133666033,1.79035
1378133726033,1.79786
1378133786033,1.86077
1378133846033,1.81606
1378133906033,1.78276
1378133966033,1.81842
1378134026046,1.81168
1378134086046,1.79975
1378134146046,1.82315
1378134206046,1.80136
1378134266046,1.83816
1378134326046,1.84318
1378134386046,1.80232
1378134446046,1.81457
1378134506046,1.83090
1378134566046,1.81033
1378134626046,1.83408
1378134686046,1.81565
1378134746046,1.81699
1378134806046,1.82206
1378134866046,1.81532
1378134926046,1.83408
1378134986046,1.80932
1378135046046,1.81152
1378135106046,1.81221
1378135166046,1.81993
1378135226046,1.82217
1378135286046,1.76834
1378135346046,1.82914
1378135406046,1.79715
1378135466046,1.80480
1378135526046,1.81152
1378135586046,1.85814
1378135646046,1.82484
1378135706046,1.84113
1378135766046,1.82241
1378135826046,1.83912
1378135886046,1.86256
1378135946046,1.83853
1378136006046,1.83364
1378136066046,1.83968
1378136126046,1.81602
1378136186046,1.85894
1378136246046,1.86536
1378136306046,1.82881
1378136366046,1.84083
1378136426046,1.83246
1378136486046,1.82310
1378136546046,1.82055
1378136606046,1.80377
1378136666046,1.86993
1378136726046,1.79904
1378136786046,1.82110
1378136846046,1.83301
1378136906046,1.85858
1378136966046,1.84977
1378137026046,1.83712
1378137086046,1.81407
1378137146046,1.83774
1378137206046,1.80343
1378137266046,1.84097
1378137326046,1.83570
1378137386046,1.84579
1378137446046,1.85931
1378137506046,1.85790
1378137566046,1.83580
1378137626059,1.82308
1378137686059,1.84073
1378137746059,2.14091
1378137806059,1.84579
1378137866059,1.83975
1378137926059,1.82896
1378137986059,1.81302
1378138046059,1.84532
1378138106059,1.84280
1378138166059,1.83022
1378138226059,1.84460
1378138286059,1.83379
1378138346059,1.82503
1378138406059,1.84361
1378138466059,1.86867
1378138526059,1.75338
1378138586059,1.87222
1378138646059,1.82929
1378138706059,1.85156
1378138766059,1.84386
1378138826059,1.83146
1378138886059,1.81874
1378138946059,1.85411
1378139006059,1.84394
1378139066059,1.85206
1378139126059,1.83467
1378139186059,1.84539
1378139246059,1.85062
1378139306059,1.82306
1378139366059,1.88010
1378139426059,1.87389
1378139486059,1.85106
1378139546059,1.88806
1378139606059,1.84844
1378139666059,1.87268
1378139726059,1.87571
1378139786059,1.87199
1378139846059,1.84823
1378139906059,1.85108
1378139966059,1.86316
1378140026059,1.87465
1378140086059,1.86999
1378140146059,1.87166
1378140206059,1.88154
1378140266059,1.87742
1378140326059,1.85038
1378140386059,1.88169
1378140446059,1.89160
1378140506059,1.87028
1378140566059,1.89963
1378140626059,1.87676
1378140686059,1.87291
1378140746059,1.86711
1378140806059,1.87885
1378140866059,1.86531
1378140926059,1.91727
1378140986059,1.87297
1378141046059,1.85613
1378141106059,1.90244
1378141166059,1.85378
1378141226073,1.88978
1378141286073,1.92003
1378141346073,1.93975
1378141406073,1.87615
1378141466073,1.90134
1378141526073,1.91511
1378141586073,1.87233
1378141646073,1.90623
1378141706073,1.86412
1378141766073,1.86750
1378141826073,1.91499
1378141886073,1.85544
1378141946073,1.87266
1378142006073,1.91067
1378142066073,1.90822
1378142126073,1.92706
1378142186073,1.86879
1378142246073,1.86820
1378142306073,1.90972
1378142366073,1.86939
1378142426073,1.81122
1378142486073,1.86243
1378142546073,1.86324
1378142606073,1.88845
1378142666073,1.88517
1378142726073,1.89767
1378142786073,1.88177
1378142846073,1.86580
1378142906073,1.89445
1378142966073,1.93259
1378143026073,1.91774
1378143086073,1.93792
1378143146073,1.87875
1378143206073,1.90175
1378143266073,1.90918
1378143326073,1.88424
1378143386073,1.90739
1378143446073,1.89361
1378143506073,1.87726
1378143566073,1.86840
1378143626073,1.91786
1378143686073,1.87172
1378143746073,1.88580
1378143806073,1.87157
1378143866073,1.88662
1378143926073,1.89432
1378143986073,1.89201
1378144046073,1.90465
1378144106073,1.87741
1378144166073,1.86396
1378144226073,1.89041
1378144286073,1.92108
1378144346073,1.89796
1378144406073,1.87945
1378144466073,1.88493
1378144526073,1.90830
1378144586073,1.89951
1378144646073,1.89041
1378144706073,1.90198
1378144766073,2.01962
1378144826086,1.88834
1378144886086,1.86051
1378144946086,1.90096
1378145006086,1.89473
1378145066086,1.89675
1378145126086,1.87382
1378145186086,1.84515
1378145246086,1.88169
1378145306086,1.89516
1378145366086,1.89758
1378145426086,1.88504
1378145486086,1.92001
1378145546086,1.88232
1378145606086,1.87763
1378145666086,1.91158
1378145726086,1.91271
1378145786086,1.86469
1378145846086,1.90131
1378145906086,1.87650
1378145966086,1.91233
1378146026086,1.89190
1378146086086,1.88589
1378146146086,1.84797
1378146206086,1.88822
1378146266086,1.88147
1378146326086,1.83183
1378146386086,1.89634
1378146446086,1.89774
1378146506086,1.88468
1378146566086,1.85343
1378146626086,1.82967
1378146686086,1.85705
1378146746086,1.88613
1378146806086,1.85689
1378146866086,1.86779
1378146926086,1.87386
1378146986086,1.88582
1378147046086,1.87018
1378147106086,1.88917
1378147166086,2.02554
1378147226086,1.88116
1378147286086,1.89433
1378147346086,1.88301